Location: Voyageurs National Park
(48.5020°N, 92.9292°W)
Time: 07:00:42
(UTC-05:00)

Meteor 2-1 Rocket - Pass Details

Date: 19 January 2018
Orbit: 830 x 907 km, 81.3° (Epoch: 21 May)

Event Time Altitude Azimuth Distance (km) Brightness Sun altitude
Rises 06:59:24 0° 200° (SSW) 3,360 7.3 -9.2°
Reaches altitude 10° 07:01:49 10° 204° (SSW) 2,433 6.6 -8.8°
Maximum altitude 07:07:15 61° 285° (WNW) 945 4.2 -8.0°
Drops below altitude 10° 07:12:48 10° 6° (N) 2,479 6.5 -7.1°
Sets 07:15:18 0° 10° (N) 3,429 7.2 -6.7°
